パンスターズ彗星

C/2018 F4 ( PanSTARRS )

English version
Home page
Updated on January 23, 2021

---------------------------------------------------------------------

・ プロフィール

発見日 2018年3月17日
発見光度 20.4等
発見者 Pan-STARRS 1 telescope (Haleakala)

・ 写真集

・ 軌道要素

    C/2018 F4 (PANSTARRS)
Epoch 2019 Dec. 23.0 TT = JDT 2458840.5                                         
T 2019 Dec. 4.08746 TT                                  Rudenko                 
q   3.4399377            (2000.0)            P               Q                  
z  -0.0004408      Peri.  263.21011     -0.01440439     +0.89948103             
 +/-0.0000015      Node    26.50757     +0.16995456     +0.43261463             
e   1.0015163      Incl.   78.09882     -0.98534662     +0.06146908             
From 408 observations 2018 Mar. 17-2020 Nov. 8, mean residual 1".1.             
                                                                                
    C/2018 F4-A (PANSTARRS)
Epoch 2019 Dec. 23.0 TT = JDT 2458840.5                                         
T 2019 Dec. 4.04567 TT                                  Rudenko                 
q   3.4393961            (2000.0)            P               Q                  
z  -0.0004113      Peri.  263.19544     -0.01460136     +0.89945842             
 +/-0.0000338      Node    26.51048     +0.16979984     +0.43269497             
e   1.0014145      Incl.   78.09600     -0.98537039     +0.06123405             
From 75 observations 2020 Sept. 12-Nov. 9, mean residual 0".5.                  
                                                                                
    C/2018 F4-B (PANSTARRS)
Epoch 2019 Dec. 23.0 TT = JDT 2458840.5                                         
T 2019 Dec. 3.99441 TT                                  Rudenko                 
q   3.4394066            (2000.0)            P               Q                  
z  -0.0004205      Peri.  263.18671     -0.01475720     +0.89946392             
 +/-0.0000433      Node    26.50921     +0.16976191     +0.43270579             
e   1.0014463      Incl.   78.09781     -0.98537461     +0.06107666             
From 69 observations 2020 Sept. 12-Nov. 9, mean residual 0".7.                  

・ 星図

・ 光度変化

        m1 = -9.0 + 5 logΔ + 30   log r  [    ,-615]  (              〜2018年 3月29日)
        m1 =  3.0 + 5 logΔ + 15.0 log r  [-615,    ]  (2018年 3月29日〜              )

---------------------------------------------------------------------

軌道要素はM.P.E.C. 2020-W26に掲載されたものです。
A核とB核の軌道要素は、M.P.E.C. 2020-W26に掲載されたものです。
星図はステラナビゲータ Ver.10 (アストロアーツ) で作成したものです。
光度グラフはComet for Windowsで作成したものです。

---------------------------------------------------------------------

Copyright(C) Seiichi Yoshida (comet@aerith.net). All rights reserved.